Location: Newark
(41.5333°N, 14.5500°E)
Time: 02:02:48
(UTC+00:00)

Envisat - Pass Details

Date: 04 February 2020
Orbit: 764 x 766 km, 98.1° (Epoch: 25 February)

Event Time Altitude Azimuth Distance (km) Brightness Sun altitude
Rises 17:55:24 0° 202° (SSW) 3,219 6.6 -18.0°
Reaches altitude 10° 17:58:14 10° 219° (SW) 2,297 6.1 -18.5°
Maximum altitude 18:02:01 21° 267° (W) 1,669 5.7 -19.2°
Drops below altitude 10° 18:05:50 10° 316° (NW) 2,309 6.0 -20.0°
Sets 18:08:42 0° 332° (NNW) 3,241 6.6 -20.5°
